CES238 ZSSS-RCTP

Flight info

Callsign CES238
Flight time 1h 24m
Altitude 31100
Route PON71D PONAB W13 HSN DCT BEGMO M503 OKATO/K0861S1130 R596 SULEM/N0463F380 R596 BERBA B591 BAKER BAKER1A
Aircraft A20N/M-SDE2E3FGHIRWXY/LB1

Departure

Time 2026-04-30 06:31
Airport Shanghai Hongqiao International Airport (ZSSS)

Arrival

Time 2026-04-30 07:55
Airport Taiwan Taoyuan International Airport (RCTP)
Time Latitude Longitude Altitude Speed Heading
2026-04-30 05:42 31.19825 121.34268 20 ft 0 kts 179°
2026-04-30 06:14 31.19836 121.34268 20 ft 2 kts 179°
2026-04-30 06:15 31.19851 121.34267 20 ft 2 kts 179°
2026-04-30 06:15 31.19866 121.34267 20 ft 2 kts 179°
2026-04-30 06:15 31.19881 121.34269 20 ft 2 kts 200°
2026-04-30 06:15 31.19894 121.34277 20 ft 2 kts 216°
2026-04-30 06:16 31.19905 121.34289 21 ft 2 kts 232°
2026-04-30 06:16 31.19913 121.34303 21 ft 2 kts 249°
2026-04-30 06:16 31.19916 121.34319 21 ft 0 kts 264°
2026-04-30 06:16 31.19916 121.34327 21 ft 1 kts 268°
2026-04-30 06:17 31.19916 121.34328 21 ft 0 kts 268°
2026-04-30 06:22 31.19916 121.34312 21 ft 3 kts 267°
2026-04-30 06:22 31.19914 121.34274 20 ft 6 kts 267°
2026-04-30 06:22 31.19912 121.34212 19 ft 9 kts 267°
2026-04-30 06:22 31.19908 121.34127 17 ft 11 kts 267°
2026-04-30 06:23 31.19904 121.34024 17 ft 12 kts 266°
2026-04-30 06:23 31.19895 121.33955 17 ft 13 kts 262°
2026-04-30 06:23 31.19888 121.33800 15 ft 15 kts 266°
2026-04-30 06:23 31.19883 121.33681 17 ft 14 kts 267°
2026-04-30 06:24 31.19878 121.33565 17 ft 14 kts 268°
2026-04-30 06:24 31.19872 121.33469 18 ft 8 kts 253°
2026-04-30 06:24 31.19824 121.33435 18 ft 9 kts 176°
2026-04-30 06:24 31.19752 121.33439 18 ft 10 kts 177°
2026-04-30 06:25 31.19675 121.33443 18 ft 11 kts 177°
2026-04-30 06:25 31.19589 121.33448 18 ft 12 kts 177°
2026-04-30 06:25 31.19498 121.33453 18 ft 13 kts 176°
2026-04-30 06:25 31.19396 121.33459 16 ft 15 kts 178°
2026-04-30 06:26 31.19282 121.33465 16 ft 16 kts 177°
2026-04-30 06:26 31.19163 121.33471 16 ft 17 kts 177°
2026-04-30 06:26 31.19037 121.33478 15 ft 18 kts 177°
2026-04-30 06:26 31.18909 121.33485 17 ft 18 kts 177°
2026-04-30 06:27 31.18785 121.33491 18 ft 18 kts 177°
2026-04-30 06:27 31.18657 121.33498 18 ft 18 kts 178°
2026-04-30 06:27 31.18526 121.33506 18 ft 19 kts 176°
2026-04-30 06:27 31.18405 121.33512 18 ft 8 kts 177°
2026-04-30 06:28 31.18355 121.33487 18 ft 9 kts 239°
2026-04-30 06:28 31.18349 121.33460 18 ft 0 kts 266°
2026-04-30 06:28 31.18349 121.33459 18 ft 0 kts 266°
2026-04-30 06:29 31.18349 121.33450 18 ft 2 kts 267°
2026-04-30 06:29 31.18348 121.33425 18 ft 3 kts 267°
2026-04-30 06:29 31.18346 121.33385 18 ft 5 kts 267°
2026-04-30 06:29 31.18351 121.33336 18 ft 6 kts 303°
2026-04-30 06:30 31.18391 121.33321 18 ft 0 kts 358°
2026-04-30 06:30 31.18490 121.33315 18 ft 46 kts 356°
2026-04-30 06:30 31.19048 121.33284 19 ft 112 kts 357°
2026-04-30 06:31 31.20024 121.33231 37 ft 162 kts 358°
2026-04-30 06:31 31.21132 121.33199 620 ft 159 kts 357°
2026-04-30 06:31 31.22221 121.33034 1280 ft 159 kts 332°
2026-04-30 06:31 31.22921 121.32098 1940 ft 159 kts 301°
2026-04-30 06:32 31.23407 121.30971 2525 ft 157 kts 299°
2026-04-30 06:32 31.23914 121.29841 3059 ft 158 kts 302°
2026-04-30 06:32 31.24477 121.28713 3493 ft 166 kts 303°
2026-04-30 06:32 31.25115 121.27519 3835 ft 182 kts 304°
2026-04-30 06:33 31.25840 121.26215 4152 ft 201 kts 305°
2026-04-30 06:33 31.26640 121.24799 4441 ft 223 kts 305°
2026-04-30 06:33 31.27387 121.23189 4791 ft 231 kts 285°
2026-04-30 06:33 31.27330 121.21282 5413 ft 245 kts 253°
2026-04-30 06:34 31.26439 121.19522 5935 ft 264 kts 235°
2026-04-30 06:34 31.25291 121.17768 6543 ft 276 kts 236°
2026-04-30 06:34 31.24133 121.15974 7386 ft 278 kts 236°
2026-04-30 06:34 31.22991 121.14172 8259 ft 278 kts 237°
2026-04-30 06:35 31.21636 121.12556 9060 ft 287 kts 215°
2026-04-30 06:35 31.19735 121.11813 9854 ft 299 kts 187°
2026-04-30 06:35 31.17658 121.11886 10604 ft 306 kts 181°
2026-04-30 06:35 31.15474 121.12058 11050 ft 322 kts 181°
2026-04-30 06:36 31.13183 121.12216 11396 ft 339 kts 182°
2026-04-30 06:36 31.10759 121.12365 11710 ft 356 kts 182°
2026-04-30 06:36 31.08234 121.12810 11965 ft 382 kts 165°
2026-04-30 06:36 31.05852 121.14427 12219 ft 410 kts 141°
2026-04-30 06:37 31.03987 121.17026 12493 ft 429 kts 128°
2026-04-30 06:37 31.02261 121.19894 12785 ft 441 kts 127°
2026-04-30 06:37 31.00488 121.22866 13363 ft 445 kts 128°
2026-04-30 06:37 30.98691 121.25821 13948 ft 448 kts 129°
2026-04-30 06:38 30.96868 121.28748 14486 ft 453 kts 130°
2026-04-30 06:38 30.95003 121.31706 14830 ft 455 kts 131°
2026-04-30 06:38 30.93206 121.34808 15095 ft 461 kts 124°
2026-04-30 06:38 30.91816 121.38159 15467 ft 472 kts 114°
2026-04-30 06:39 30.90822 121.41849 16056 ft 476 kts 107°
2026-04-30 06:39 30.90010 121.45606 16548 ft 481 kts 106°
2026-04-30 06:39 30.89228 121.49387 16980 ft 486 kts 106°
2026-04-30 06:39 30.88422 121.53245 17448 ft 490 kts 107°
2026-04-30 06:40 30.87600 121.57082 17891 ft 494 kts 107°
2026-04-30 06:40 30.86758 121.60938 18313 ft 498 kts 108°
2026-04-30 06:40 30.85890 121.64884 18809 ft 500 kts 108°
2026-04-30 06:40 30.85021 121.68805 19219 ft 503 kts 109°
2026-04-30 06:41 30.84141 121.72756 19585 ft 508 kts 109°
2026-04-30 06:41 30.83261 121.76709 19967 ft 511 kts 109°
2026-04-30 06:41 30.82368 121.80711 20333 ft 515 kts 109°
2026-04-30 06:41 30.81465 121.84757 20657 ft 519 kts 109°
2026-04-30 06:42 30.80639 121.88872 21037 ft 526 kts 103°
2026-04-30 06:42 30.80435 121.93142 21366 ft 535 kts 89°
2026-04-30 06:42 30.81016 121.97382 21722 ft 540 kts 76°
2026-04-30 06:42 30.82173 122.01589 22138 ft 542 kts 70°
2026-04-30 06:43 30.83440 122.05706 22433 ft 546 kts 70°
2026-04-30 06:43 30.84581 122.09933 22652 ft 550 kts 80°
2026-04-30 06:43 30.84781 122.14302 22902 ft 545 kts 100°
2026-04-30 06:43 30.83850 122.18514 23236 ft 532 kts 120°
2026-04-30 06:44 30.81950 122.22057 23515 ft 511 kts 140°
2026-04-30 06:44 30.79299 122.24630 23941 ft 485 kts 158°
2026-04-30 06:44 30.76365 122.26465 24437 ft 477 kts 162°
2026-04-30 06:44 30.73412 122.28288 24748 ft 482 kts 160°
2026-04-30 06:45 30.70534 122.30303 25085 ft 488 kts 157°
2026-04-30 06:45 30.67730 122.32507 25643 ft 486 kts 155°
2026-04-30 06:45 30.65000 122.34792 26142 ft 486 kts 154°
2026-04-30 06:45 30.62252 122.37100 26417 ft 484 kts 157°
2026-04-30 06:46 30.59345 122.38854 26672 ft 464 kts 171°
2026-04-30 06:46 30.56286 122.39756 27053 ft 442 kts 184°
2026-04-30 06:46 30.53298 122.39898 27478 ft 424 kts 193°
2026-04-30 06:46 30.50387 122.39744 27954 ft 420 kts 194°
2026-04-30 06:47 30.47465 122.39567 28404 ft 416 kts 194°
2026-04-30 06:47 30.44591 122.39399 28780 ft 415 kts 194°
2026-04-30 06:47 30.41686 122.39230 29148 ft 414 kts 195°
2026-04-30 06:47 30.38857 122.39075 29534 ft 412 kts 194°
2026-04-30 06:48 30.36001 122.38917 29919 ft 411 kts 195°
2026-04-30 06:48 30.33126 122.38762 30127 ft 413 kts 195°
2026-04-30 06:48 30.30234 122.38604 30308 ft 416 kts 194°
2026-04-30 06:48 30.27352 122.38451 30546 ft 417 kts 194°
2026-04-30 06:49 30.24425 122.38299 30772 ft 417 kts 194°
2026-04-30 06:49 30.21532 122.38122 30984 ft 418 kts 195°
2026-04-30 06:49 30.18646 122.37938 31148 ft 419 kts 195°
2026-04-30 06:50 30.12780 122.37563 31186 ft 422 kts 195°
2026-04-30 06:50 30.06918 122.37196 31179 ft 422 kts 195°
2026-04-30 06:51 30.02007 122.36884 31174 ft 423 kts 195°
2026-04-30 06:51 29.96148 122.36448 31174 ft 417 kts 197°
2026-04-30 06:52 29.89548 122.35270 31181 ft 409 kts 204°
2026-04-30 06:52 29.84004 122.33752 31187 ft 408 kts 204°
2026-04-30 06:53 29.78481 122.32227 31187 ft 409 kts 205°
2026-04-30 06:53 29.72942 122.30683 31178 ft 409 kts 204°
2026-04-30 06:54 29.67422 122.29151 31181 ft 407 kts 204°
2026-04-30 06:54 29.61885 122.27615 31189 ft 409 kts 205°
2026-04-30 06:55 29.56351 122.26077 31186 ft 410 kts 204°
2026-04-30 06:55 29.50762 122.24526 31185 ft 411 kts 204°
2026-04-30 06:56 29.45229 122.22993 31180 ft 410 kts 204°
2026-04-30 06:56 29.39659 122.21451 31182 ft 411 kts 204°
2026-04-30 06:57 29.34086 122.19910 31189 ft 413 kts 204°
2026-04-30 06:57 29.28477 122.18359 31189 ft 414 kts 204°
2026-04-30 06:58 29.22895 122.16817 31187 ft 414 kts 204°
2026-04-30 06:58 29.17274 122.15269 31192 ft 415 kts 204°
2026-04-30 06:59 29.11675 122.13729 31186 ft 415 kts 204°
2026-04-30 06:59 29.06049 122.12180 31187 ft 415 kts 204°
2026-04-30 07:00 29.00410 122.10630 31184 ft 414 kts 204°
2026-04-30 07:00 28.94780 122.09086 31190 ft 415 kts 204°
2026-04-30 07:01 28.89178 122.07550 31194 ft 417 kts 204°
2026-04-30 07:01 28.83593 122.06023 31193 ft 417 kts 204°
2026-04-30 07:02 28.77908 122.04465 31195 ft 419 kts 204°
2026-04-30 07:02 28.72196 122.02905 31194 ft 420 kts 204°
2026-04-30 07:03 28.66539 122.01364 31195 ft 418 kts 204°
2026-04-30 07:03 28.60813 121.99802 31194 ft 422 kts 204°
2026-04-30 07:04 28.55130 121.98257 31195 ft 423 kts 204°
2026-04-30 07:04 28.49369 121.96689 31194 ft 425 kts 204°
2026-04-30 07:05 28.40742 121.94344 31194 ft 424 kts 204°
2026-04-30 07:05 28.34994 121.92788 31194 ft 426 kts 204°
2026-04-30 07:06 28.29239 121.91226 31193 ft 426 kts 203°
2026-04-30 07:06 28.23449 121.89662 31194 ft 428 kts 203°
2026-04-30 07:07 28.17682 121.88103 31195 ft 426 kts 204°
2026-04-30 07:07 28.11888 121.86541 31193 ft 427 kts 203°
2026-04-30 07:08 28.06127 121.84945 31190 ft 426 kts 205°
2026-04-30 07:08 28.00523 121.82887 31190 ft 421 kts 210°
2026-04-30 07:09 27.95150 121.80245 31191 ft 415 kts 214°
2026-04-30 07:09 27.90112 121.77206 31189 ft 413 kts 217°
2026-04-30 07:10 27.85067 121.74101 31189 ft 413 kts 217°
2026-04-30 07:10 27.79974 121.70958 31186 ft 414 kts 217°
2026-04-30 07:11 27.74943 121.67857 31185 ft 417 kts 217°
2026-04-30 07:11 27.69841 121.64712 31185 ft 416 kts 217°
2026-04-30 07:12 27.67190 121.63392 31166 ft 430 kts 205°
2026-04-30 07:12 27.64168 121.62877 31177 ft 451 kts 191°
2026-04-30 07:12 27.60947 121.63310 31176 ft 474 kts 175°
2026-04-30 07:12 27.57873 121.64764 31178 ft 497 kts 158°
2026-04-30 07:13 27.55130 121.67302 31177 ft 523 kts 139°
2026-04-30 07:13 27.53120 121.70775 31177 ft 541 kts 119°
2026-04-30 07:13 27.52081 121.74904 31183 ft 554 kts 99°
2026-04-30 07:13 27.52134 121.79240 31197 ft 558 kts 83°
2026-04-30 07:14 27.52622 121.87853 31187 ft 555 kts 96°
2026-04-30 07:14 27.51780 121.96432 31186 ft 552 kts 102°
2026-04-30 07:15 27.50433 122.04917 31182 ft 550 kts 104°
2026-04-30 07:15 27.48952 122.13318 31184 ft 549 kts 105°
2026-04-30 07:16 27.47464 122.21744 31177 ft 548 kts 104°
2026-04-30 07:16 27.46014 122.30029 31174 ft 546 kts 105°
2026-04-30 07:17 27.44591 122.38386 31171 ft 549 kts 102°
2026-04-30 07:18 27.43776 122.51242 31076 ft 551 kts 91°
2026-04-30 07:18 27.43827 122.59823 31067 ft 552 kts 91°
2026-04-30 07:19 27.43847 122.68469 31056 ft 553 kts 92°
2026-04-30 07:19 27.43208 122.76997 31046 ft 543 kts 110°
2026-04-30 07:19 27.41851 122.80860 31054 ft 533 kts 124°
2026-04-30 07:20 27.39805 122.84278 31057 ft 519 kts 138°
2026-04-30 07:20 27.37255 122.87049 31057 ft 503 kts 150°
2026-04-30 07:20 27.34336 122.89135 31052 ft 489 kts 162°
2026-04-30 07:20 27.31258 122.90551 31057 ft 478 kts 169°
2026-04-30 07:21 27.28106 122.91763 31052 ft 477 kts 170°
2026-04-30 07:21 27.21797 122.94237 31049 ft 480 kts 169°
2026-04-30 07:22 27.12312 122.97358 31036 ft 461 kts 184°
2026-04-30 07:22 27.09148 122.97370 31038 ft 450 kts 193°
2026-04-30 07:22 27.06087 122.96809 31038 ft 441 kts 202°
2026-04-30 07:23 27.00598 122.94215 31038 ft 424 kts 218°
2026-04-30 07:23 26.95769 122.90459 31040 ft 422 kts 221°
2026-04-30 07:24 26.90978 122.86643 31045 ft 422 kts 221°
2026-04-30 07:24 26.86219 122.82860 31054 ft 422 kts 221°
2026-04-30 07:25 26.81395 122.79032 31051 ft 423 kts 220°
2026-04-30 07:25 26.76623 122.75256 31048 ft 423 kts 220°
2026-04-30 07:26 26.71792 122.71432 31051 ft 424 kts 220°
2026-04-30 07:26 26.66969 122.67625 31053 ft 424 kts 220°
2026-04-30 07:27 26.62146 122.63817 31049 ft 425 kts 220°
2026-04-30 07:27 26.57317 122.60011 31051 ft 425 kts 220°
2026-04-30 07:28 26.52508 122.56220 31047 ft 426 kts 220°
2026-04-30 07:28 26.47647 122.52393 31049 ft 426 kts 220°
2026-04-30 07:29 26.42781 122.48565 31046 ft 427 kts 220°
2026-04-30 07:29 26.37934 122.44756 31045 ft 428 kts 220°
2026-04-30 07:30 26.30619 122.39017 30953 ft 428 kts 220°
2026-04-30 07:30 26.28186 122.37110 30590 ft 427 kts 220°
2026-04-30 07:31 26.25764 122.35216 30203 ft 424 kts 220°
2026-04-30 07:31 26.23376 122.33346 29822 ft 422 kts 220°
2026-04-30 07:31 26.20991 122.31475 29438 ft 423 kts 220°
2026-04-30 07:31 26.18583 122.29591 29054 ft 425 kts 220°
2026-04-30 07:32 26.16152 122.27691 28674 ft 426 kts 220°
2026-04-30 07:32 26.13719 122.25787 28296 ft 427 kts 220°
2026-04-30 07:32 26.11267 122.23896 27917 ft 429 kts 219°
2026-04-30 07:32 26.08825 122.22028 27544 ft 430 kts 219°
2026-04-30 07:33 26.06336 122.20126 27166 ft 432 kts 219°
2026-04-30 07:33 26.03872 122.18242 26789 ft 433 kts 219°
2026-04-30 07:33 26.01401 122.16351 26415 ft 434 kts 219°
2026-04-30 07:33 25.98910 122.14448 26040 ft 436 kts 219°
2026-04-30 07:34 25.96402 122.12532 25664 ft 437 kts 219°
2026-04-30 07:34 25.93906 122.10626 25291 ft 439 kts 219°
2026-04-30 07:34 25.91384 122.08698 24917 ft 440 kts 219°
2026-04-30 07:34 25.88855 122.06770 24545 ft 442 kts 219°
2026-04-30 07:35 25.86332 122.04845 24174 ft 443 kts 219°
2026-04-30 07:35 25.83772 122.02891 23801 ft 446 kts 219°
2026-04-30 07:35 25.81225 122.00948 23446 ft 447 kts 219°
2026-04-30 07:35 25.78649 121.98988 23088 ft 447 kts 219°
2026-04-30 07:36 25.76091 121.97041 22734 ft 445 kts 219°
2026-04-30 07:36 25.73535 121.95098 22383 ft 443 kts 219°
2026-04-30 07:36 25.71003 121.93165 22040 ft 441 kts 219°
2026-04-30 07:36 25.68514 121.91245 21702 ft 438 kts 220°
2026-04-30 07:37 25.66146 121.89140 21355 ft 433 kts 226°
2026-04-30 07:37 25.64094 121.86752 21012 ft 428 kts 233°
2026-04-30 07:37 25.62354 121.84110 20669 ft 423 kts 240°
2026-04-30 07:37 25.60865 121.81316 20316 ft 420 kts 242°
2026-04-30 07:38 25.59436 121.78528 19835 ft 417 kts 242°
2026-04-30 07:38 25.58018 121.75741 19257 ft 413 kts 243°
2026-04-30 07:38 25.56629 121.73017 18650 ft 409 kts 242°
2026-04-30 07:38 25.55234 121.70290 18017 ft 404 kts 242°
2026-04-30 07:39 25.53883 121.67656 17396 ft 400 kts 242°
2026-04-30 07:39 25.52505 121.64973 16772 ft 396 kts 242°
2026-04-30 07:39 25.51182 121.62401 16170 ft 392 kts 242°
2026-04-30 07:39 25.49798 121.59815 15557 ft 388 kts 239°
2026-04-30 07:40 25.48313 121.57381 14955 ft 385 kts 236°
2026-04-30 07:40 25.46703 121.55058 14349 ft 381 kts 233°
2026-04-30 07:40 25.45012 121.52854 13765 ft 378 kts 231°
2026-04-30 07:40 25.43316 121.50671 13214 ft 375 kts 231°
2026-04-30 07:41 25.41597 121.48467 12850 ft 377 kts 231°
2026-04-30 07:41 25.39887 121.46275 12489 ft 375 kts 231°
2026-04-30 07:41 25.38185 121.44100 12130 ft 373 kts 231°
2026-04-30 07:41 25.36513 121.41966 11769 ft 366 kts 231°
2026-04-30 07:42 25.34886 121.39891 11412 ft 355 kts 231°
2026-04-30 07:42 25.33293 121.37858 11050 ft 345 kts 231°
2026-04-30 07:42 25.31744 121.35883 10703 ft 335 kts 231°
2026-04-30 07:42 25.30256 121.33984 10409 ft 317 kts 230°
2026-04-30 07:43 25.28868 121.32217 10116 ft 295 kts 230°
2026-04-30 07:43 25.27565 121.30557 9822 ft 274 kts 230°
2026-04-30 07:43 25.26343 121.28998 9529 ft 264 kts 230°
2026-04-30 07:43 25.25157 121.27484 9239 ft 258 kts 230°
2026-04-30 07:44 25.23989 121.25994 8980 ft 258 kts 230°
2026-04-30 07:44 25.22814 121.24495 8708 ft 258 kts 230°
2026-04-30 07:44 25.21638 121.22997 8440 ft 258 kts 230°
2026-04-30 07:44 25.20471 121.21510 8171 ft 255 kts 230°
2026-04-30 07:45 25.19327 121.20055 7903 ft 250 kts 230°
2026-04-30 07:45 25.18196 121.18617 7635 ft 245 kts 230°
2026-04-30 07:45 25.17090 121.17210 7367 ft 241 kts 230°
2026-04-30 07:45 25.15991 121.15814 7092 ft 237 kts 230°
2026-04-30 07:46 25.14921 121.14455 6823 ft 233 kts 230°
2026-04-30 07:46 25.13867 121.13116 6554 ft 229 kts 230°
2026-04-30 07:46 25.12841 121.11814 6284 ft 226 kts 230°
2026-04-30 07:46 25.11811 121.10507 6016 ft 223 kts 230°
2026-04-30 07:47 25.10797 121.09219 5770 ft 220 kts 230°
2026-04-30 07:47 25.09797 121.07946 5523 ft 222 kts 230°
2026-04-30 07:47 25.08769 121.06638 5278 ft 225 kts 230°
2026-04-30 07:47 25.07741 121.05331 5028 ft 227 kts 230°
2026-04-30 07:48 25.06701 121.04010 4785 ft 230 kts 230°
2026-04-30 07:48 25.05654 121.02679 4533 ft 232 kts 229°
2026-04-30 07:48 25.04500 121.01405 4275 ft 235 kts 212°
2026-04-30 07:48 25.02976 121.00791 4023 ft 235 kts 182°
2026-04-30 07:49 25.01362 121.01000 3772 ft 233 kts 155°
2026-04-30 07:49 25.00026 121.01922 3529 ft 227 kts 133°
2026-04-30 07:49 24.98898 121.03140 3290 ft 226 kts 129°
2026-04-30 07:49 24.97792 121.04368 3040 ft 223 kts 129°
2026-04-30 07:50 24.96689 121.05576 2766 ft 219 kts 129°
2026-04-30 07:50 24.95778 121.06825 2466 ft 202 kts 104°
2026-04-30 07:50 24.95672 121.08266 2188 ft 186 kts 71°
2026-04-30 07:50 24.96179 121.09543 1923 ft 181 kts 55°
2026-04-30 07:51 24.96920 121.10675 1662 ft 178 kts 49°
2026-04-30 07:51 24.97681 121.11672 1659 ft 161 kts 47°
2026-04-30 07:51 24.98402 121.12586 1628 ft 158 kts 46°
2026-04-30 07:51 24.99131 121.13507 1612 ft 157 kts 48°
2026-04-30 07:52 24.99840 121.14408 1604 ft 155 kts 48°
2026-04-30 07:52 25.00508 121.15259 1568 ft 137 kts 48°
2026-04-30 07:52 25.01120 121.16038 1585 ft 132 kts 47°
2026-04-30 07:52 25.01696 121.16772 1399 ft 121 kts 46°
2026-04-30 07:53 25.02244 121.17466 1257 ft 121 kts 48°
2026-04-30 07:53 25.02802 121.18180 1104 ft 122 kts 45°
2026-04-30 07:53 25.03366 121.18893 956 ft 124 kts 48°
2026-04-30 07:53 25.03931 121.19613 792 ft 125 kts 48°
2026-04-30 07:54 25.04511 121.20351 620 ft 126 kts 47°
2026-04-30 07:54 25.05085 121.21081 448 ft 128 kts 46°
2026-04-30 07:54 25.05677 121.21832 279 ft 129 kts 49°
2026-04-30 07:54 25.06262 121.22582 127 ft 130 kts 49°
2026-04-30 07:55 25.06797 121.23253 115 ft 94 kts 50°
2026-04-30 07:55 25.07115 121.23660 115 ft 44 kts 49°
2026-04-30 07:55 25.07306 121.23902 115 ft 39 kts 50°
2026-04-30 07:55 25.07450 121.24074 115 ft 26 kts 43°
2026-04-30 07:56 25.07565 121.24169 115 ft 17 kts 27°
2026-04-30 07:56 25.07656 121.24210 115 ft 10 kts 20°
2026-04-30 07:56 25.07725 121.24236 115 ft 10 kts 18°
2026-04-30 07:56 25.07800 121.24264 115 ft 11 kts 19°
2026-04-30 07:57 25.07870 121.24265 115 ft 10 kts 334°
2026-04-30 07:57 25.07930 121.24214 115 ft 11 kts 320°
2026-04-30 07:57 25.07973 121.24169 115 ft 7 kts 302°
2026-04-30 07:57 25.07968 121.24109 115 ft 9 kts 237°
2026-04-30 07:58 25.07925 121.24050 115 ft 10 kts 229°
2026-04-30 07:58 25.07874 121.23985 115 ft 11 kts 229°
2026-04-30 07:58 25.07819 121.23915 115 ft 12 kts 229°
2026-04-30 07:58 25.07758 121.23837 115 ft 13 kts 229°
2026-04-30 07:59 25.07695 121.23756 115 ft 14 kts 229°
2026-04-30 07:59 25.07653 121.23701 115 ft 4 kts 244°
2026-04-30 07:59 25.07661 121.23659 115 ft 6 kts 306°
2026-04-30 08:00 25.07709 121.23614 115 ft 4 kts 319°
2026-04-30 08:00 25.07723 121.23600 115 ft 1 kts 319°
2026-04-30 08:00 25.07729 121.23595 115 ft 0 kts 319°
2026-04-30 08:00 25.07731 121.23592 115 ft 0 kts 319°